Time,TemperatureF,DewpointF,PressureIn,WindDirection,WindDirectionDegrees,WindSpeedMPH,WindSpeedGustMPH,Humidity,HourlyPrecipIn,Conditions,Clouds,dailyrainin,SoftwareType,DateUTC
2013-06-27 00:05:00,59.4,58.0,30.04,ENE,76,0.0,1.0,94,0.00,,,0.00,weatherlink.com 1.10,2013-06-27 07:05:00,
2013-06-27 00:20:00,59.1,58.0,30.04,ENE,76,0.0,0.0,95,0.00,,,0.00,weatherlink.com 1.10,2013-06-27 07:20:00,
2013-06-27 00:35:00,59.0,58.0,30.04,ENE,76,0.0,0.0,95,0.00,,,0.00,weatherlink.com 1.10,2013-06-27 07:35:00,
2013-06-27 00:50:00,58.7,57.0,30.04,ENE,76,0.0,1.0,95,0.00,,,0.00,weatherlink.com 1.10,2013-06-27 07:50:00,
2013-06-27 01:05:00,58.6,57.0,30.04,ENE,76,0.0,0.0,95,0.00,,,0.00,weatherlink.com 1.10,2013-06-27 08:05:00,
2013-06-27 01:20:00,58.3,57.0,30.03,ENE,76,0.0,1.0,95,0.00,,,0.00,weatherlink.com 1.10,2013-06-27 08:20:00,
2013-06-27 01:35:00,58.1,57.0,30.04,ENE,76,0.0,0.0,95,0.00,,,0.00,weatherlink.com 1.10,2013-06-27 08:35:00,
2013-06-27 01:50:00,57.8,56.0,30.03,ENE,76,0.0,0.0,95,0.00,,,0.00,weatherlink.com 1.10,2013-06-27 08:50:00,
2013-06-27 02:05:00,57.5,56.0,30.03,ENE,76,0.0,0.0,95,0.00,,,0.00,weatherlink.com 1.10,2013-06-27 09:05:00,
2013-06-27 02:20:00,57.3,56.0,30.03,ENE,76,0.0,0.0,96,0.00,,,0.00,weatherlink.com 1.10,2013-06-27 09:20:00,
2013-06-27 02:35:00,57.1,56.0,30.03,ENE,76,0.0,2.0,96,0.00,,,0.00,weatherlink.com 1.10,2013-06-27 09:35:00,
2013-06-27 02:50:00,57.0,56.0,30.03,ENE,76,0.0,0.0,96,0.00,,,0.00,weatherlink.com 1.10,2013-06-27 09:50:00,
2013-06-27 03:05:00,56.9,56.0,30.03,ENE,76,0.0,0.0,96,0.00,,,0.00,weatherlink.com 1.10,2013-06-27 10:05:00,
2013-06-27 03:20:00,57.0,56.0,30.03,ENE,76,0.0,0.0,96,0.00,,,0.00,weatherlink.com 1.10,2013-06-27 10:20:00,
2013-06-27 03:35:00,57.0,56.0,30.03,ENE,76,0.0,0.0,96,0.00,,,0.00,weatherlink.com 1.10,2013-06-27 10:35:00,
2013-06-27 03:50:00,57.2,56.0,30.03,ENE,76,0.0,0.0,96,0.00,,,0.00,weatherlink.com 1.10,2013-06-27 10:50:00,
2013-06-27 04:05:00,56.8,56.0,30.03,ENE,76,0.0,0.0,96,0.00,,,0.00,weatherlink.com 1.10,2013-06-27 11:05:00,
2013-06-27 04:20:00,56.6,56.0,30.03,ENE,76,0.0,0.0,96,0.00,,,0.00,weatherlink.com 1.10,2013-06-27 11:20:00,
2013-06-27 04:35:00,56.3,55.0,30.03,ENE,76,0.0,0.0,96,0.00,,,0.00,weatherlink.com 1.10,2013-06-27 11:35:00,
2013-06-27 04:50:00,56.3,55.0,30.03,ENE,76,0.0,0.0,96,0.00,,,0.00,weatherlink.com 1.10,2013-06-27 11:50:00,
2013-06-27 05:05:00,56.1,55.0,30.03,ENE,76,0.0,0.0,96,0.01,,,0.01,weatherlink.com 1.10,2013-06-27 12:05:00,
2013-06-27 05:20:00,55.9,55.0,30.03,ENE,76,0.0,0.0,96,0.01,,,0.01,weatherlink.com 1.10,2013-06-27 12:20:00,
2013-06-27 05:35:00,55.9,55.0,30.04,ENE,76,0.0,0.0,96,0.01,,,0.01,weatherlink.com 1.10,2013-06-27 12:35:00,
2013-06-27 05:50:00,56.2,55.0,30.04,ENE,76,0.0,0.0,97,0.01,,,0.01,weatherlink.com 1.10,2013-06-27 12:50:00,
2013-06-27 06:05:00,55.9,55.0,30.04,ENE,76,0.0,0.0,96,0.00,,,0.01,weatherlink.com 1.10,2013-06-27 13:05:00,
2013-06-27 06:20:00,55.7,55.0,30.04,ENE,76,0.0,0.0,97,0.00,,,0.01,weatherlink.com 1.10,2013-06-27 13:20:00,
2013-06-27 06:35:00,56.1,55.0,30.04,ENE,76,0.0,0.0,97,0.00,,,0.01,weatherlink.com 1.10,2013-06-27 13:35:00,
2013-06-27 06:50:00,56.6,56.0,30.05,ENE,76,0.0,1.0,97,0.00,,,0.01,weatherlink.com 1.10,2013-06-27 13:50:00,
2013-06-27 07:05:00,57.6,57.0,30.05,ENE,76,0.0,0.0,98,0.00,,,0.01,weatherlink.com 1.10,2013-06-27 14:05:00,
2013-06-27 07:20:00,58.7,59.0,30.06,ENE,77,0.0,0.0,99,0.00,,,0.01,weatherlink.com 1.10,2013-06-27 14:20:00,
2013-06-27 07:35:00,59.5,59.0,30.06,ENE,77,0.0,1.0,99,0.00,,,0.01,weatherlink.com 1.10,2013-06-27 14:35:00,
2013-06-27 07:50:00,60.8,61.0,30.06,ENE,77,0.0,1.0,99,0.00,,,0.01,weatherlink.com 1.10,2013-06-27 14:50:00,
2013-06-27 08:05:00,62.7,63.0,30.06,ENE,77,0.0,1.0,99,0.00,,,0.01,weatherlink.com 1.10,2013-06-27 15:05:00,
2013-06-27 08:20:00,62.8,62.0,30.06,ENE,77,0.0,1.0,97,0.00,,,0.01,weatherlink.com 1.10,2013-06-27 15:20:00,
2013-06-27 08:35:00,63.7,62.0,30.07,WNW,302,0.0,1.0,93,0.00,,,0.01,weatherlink.com 1.10,2013-06-27 15:35:00,
2013-06-27 08:50:00,65.1,62.0,30.07,West,259,1.0,3.0,88,0.00,,,0.01,weatherlink.com 1.10,2013-06-27 15:50:00,
2013-06-27 09:05:00,66.5,63.0,30.07,West,259,0.0,1.0,87,0.00,,,0.01,weatherlink.com 1.10,2013-06-27 16:05:00,
2013-06-27 09:21:00,68.0,63.0,30.07,West,259,0.0,3.0,85,0.00,,,0.01,weatherlink.com 1.10,2013-06-27 16:21:00,
2013-06-27 09:36:00,69.4,64.0,30.07,WSW,251,1.0,2.0,82,0.00,,,0.01,weatherlink.com 1.10,2013-06-27 16:36:00,
2013-06-27 09:51:00,70.4,64.0,30.08,South,177,0.0,4.0,81,0.00,,,0.01,weatherlink.com 1.10,2013-06-27 16:51:00,
2013-06-27 10:06:00,72.3,65.0,30.07,SW,236,1.0,2.0,77,0.00,,,0.01,weatherlink.com 1.10,2013-06-27 17:06:00,
2013-06-27 10:21:00,74.8,65.0,30.07,SSE,161,0.0,3.0,72,0.00,,,0.01,weatherlink.com 1.10,2013-06-27 17:21:00,
2013-06-27 10:36:00,77.3,66.0,30.07,South,184,0.0,3.0,68,0.00,,,0.01,weatherlink.com 1.10,2013-06-27 17:36:00,
2013-06-27 10:51:00,77.7,65.0,30.07,SW,231,1.0,6.0,65,0.00,,,0.01,weatherlink.com 1.10,2013-06-27 17:51:00,
2013-06-27 11:06:00,77.7,65.0,30.08,South,178,2.0,5.0,66,0.00,,,0.01,weatherlink.com 1.10,2013-06-27 18:06:00,
2013-06-27 11:21:00,78.1,66.0,30.08,SW,221,1.0,6.0,67,0.00,,,0.01,weatherlink.com 1.10,2013-06-27 18:21:00,
2013-06-27 11:36:00,78.3,66.0,30.08,South,191,6.0,8.0,67,0.00,,,0.01,weatherlink.com 1.10,2013-06-27 18:36:00,
2013-06-27 11:51:00,78.5,67.0,30.08,South,178,3.0,6.0,67,0.00,,,0.01,weatherlink.com 1.10,2013-06-27 18:51:00,
2013-06-27 12:06:00,79.7,66.0,30.08,South,176,3.0,6.0,63,0.00,,,0.01,weatherlink.com 1.10,2013-06-27 19:06:00,
2013-06-27 12:21:00,80.9,67.0,30.08,South,186,2.0,6.0,62,0.00,,,0.01,weatherlink.com 1.10,2013-06-27 19:21:00,
2013-06-27 12:36:00,81.4,66.0,30.08,SSW,192,0.0,5.0,59,0.00,,,0.01,weatherlink.com 1.10,2013-06-27 19:36:00,
2013-06-27 12:51:00,82.6,67.0,30.08,SSW,194,5.0,6.0,59,0.00,,,0.01,weatherlink.com 1.10,2013-06-27 19:51:00,
2013-06-27 13:06:00,83.1,67.0,30.07,SSW,199,1.0,4.0,58,0.00,,,0.01,weatherlink.com 1.10,2013-06-27 20:06:00,
2013-06-27 13:21:00,83.6,66.0,30.07,South,179,1.0,6.0,55,0.00,,,0.01,weatherlink.com 1.10,2013-06-27 20:21:00,
2013-06-27 13:36:00,84.5,67.0,30.07,SW,235,2.0,6.0,56,0.00,,,0.01,weatherlink.com 1.10,2013-06-27 20:36:00,
2013-06-27 13:51:00,85.4,68.0,30.06,WSW,238,3.0,8.0,56,0.00,,,0.01,weatherlink.com 1.10,2013-06-27 20:51:00,
2013-06-27 14:06:00,85.5,68.0,30.06,SW,220,0.0,5.0,56,0.00,,,0.01,weatherlink.com 1.10,2013-06-27 21:06:00,
2013-06-27 14:21:00,85.8,68.0,30.06,SSW,199,4.0,7.0,55,0.00,,,0.01,weatherlink.com 1.10,2013-06-27 21:21:00,
2013-06-27 14:36:00,86.6,67.0,30.05,SW,221,3.0,5.0,53,0.00,,,0.01,weatherlink.com 1.10,2013-06-27 21:36:00,
2013-06-27 14:52:00,87.5,67.0,30.05,SSE,150,2.0,4.0,51,0.00,,,0.01,weatherlink.com 1.10,2013-06-27 21:52:00,
2013-06-27 15:22:00,89.9,65.0,30.04,SSW,209,0.0,7.0,44,0.00,,,0.01,weatherlink.com 1.10,2013-06-27 22:22:00,
2013-06-27 15:37:00,89.1,67.0,30.04,SSW,199,5.0,7.0,48,0.00,,,0.01,weatherlink.com 1.10,2013-06-27 22:37:00,
2013-06-27 15:52:00,88.0,66.0,30.04,WSW,241,4.0,7.0,49,0.00,,,0.01,weatherlink.com 1.10,2013-06-27 22:52:00,
2013-06-27 16:07:00,88.1,67.0,30.04,South,180,4.0,6.0,50,0.00,,,0.01,weatherlink.com 1.10,2013-06-27 23:07:00,
2013-06-27 16:22:00,87.7,66.0,30.03,SW,233,4.0,7.0,49,0.00,,,0.01,weatherlink.com 1.10,2013-06-27 23:22:00,
2013-06-27 16:37:00,87.7,67.0,30.03,SSW,199,2.0,7.0,50,0.00,,,0.01,weatherlink.com 1.10,2013-06-27 23:37:00,
2013-06-27 16:52:00,88.4,67.0,30.03,WSW,239,2.0,5.0,49,0.00,,,0.01,weatherlink.com 1.10,2013-06-27 23:52:00,
2013-06-27 17:07:00,88.7,67.0,30.02,South,182,4.0,4.0,49,0.00,,,0.01,weatherlink.com 1.10,2013-06-28 00:07:00,
2013-06-27 17:22:00,89.1,68.0,30.02,South,184,2.0,6.0,49,0.00,,,0.01,weatherlink.com 1.10,2013-06-28 00:22:00,
2013-06-27 17:37:00,88.6,66.0,30.01,SSW,192,3.0,5.0,48,0.00,,,0.01,weatherlink.com 1.10,2013-06-28 00:37:00,
2013-06-27 18:07:00,88.8,65.0,30.01,WSW,250,2.0,5.0,46,0.00,,,0.01,weatherlink.com 1.10,2013-06-28 01:07:00,
2013-06-27 18:22:00,88.6,66.0,30.00,West,275,0.0,4.0,48,0.00,,,0.01,weatherlink.com 1.10,2013-06-28 01:22:00,
2013-06-27 18:37:00,89.2,66.0,30.00,NE,37,2.0,4.0,47,0.00,,,0.01,weatherlink.com 1.10,2013-06-28 01:37:00,
2013-06-27 19:07:00,87.2,66.0,30.00,SE,125,1.0,3.0,49,0.00,,,0.01,weatherlink.com 1.10,2013-06-28 02:07:00,
2013-06-27 19:37:00,84.6,66.0,30.00,East,92,1.0,3.0,54,0.00,,,0.01,weatherlink.com 1.10,2013-06-28 02:37:00,
2013-06-27 19:52:00,82.8,66.0,30.00,NE,46,0.0,2.0,57,0.00,,,0.01,weatherlink.com 1.10,2013-06-28 02:52:00,
2013-06-27 20:07:00,81.1,66.0,30.00,East,84,2.0,2.0,60,0.00,,,0.01,weatherlink.com 1.10,2013-06-28 03:07:00,
2013-06-27 20:22:00,79.8,67.0,30.00,ENE,73,0.0,2.0,64,0.00,,,0.01,weatherlink.com 1.10,2013-06-28 03:22:00,
2013-06-27 20:37:00,78.1,66.0,30.00,ENE,63,0.0,2.0,67,0.00,,,0.01,weatherlink.com 1.10,2013-06-28 03:37:00,
2013-06-27 21:07:00,74.7,66.0,30.00,ENE,63,0.0,1.0,75,0.00,,,0.01,weatherlink.com 1.10,2013-06-28 04:07:00,
2013-06-27 21:22:00,73.3,66.0,30.00,ENE,63,0.0,1.0,79,0.00,,,0.01,weatherlink.com 1.10,2013-06-28 04:22:00,
2013-06-27 21:37:00,72.2,66.0,30.01,ENE,63,0.0,0.0,81,0.00,,,0.01,weatherlink.com 1.10,2013-06-28 04:37:00,
2013-06-27 21:52:00,71.3,66.0,30.01,ENE,63,0.0,0.0,83,0.00,,,0.01,weatherlink.com 1.10,2013-06-28 04:52:00,
2013-06-27 22:07:00,70.7,66.0,30.02,ENE,63,0.0,0.0,85,0.00,,,0.01,weatherlink.com 1.10,2013-06-28 05:07:00,
2013-06-27 22:22:00,70.1,66.0,30.02,ENE,63,0.0,0.0,86,0.00,,,0.01,weatherlink.com 1.10,2013-06-28 05:22:00,
2013-06-27 22:37:00,69.7,66.0,30.02,ENE,63,0.0,0.0,87,0.00,,,0.01,weatherlink.com 1.10,2013-06-28 05:37:00,
2013-06-27 22:52:00,69.0,65.0,30.02,ENE,63,0.0,0.0,88,0.00,,,0.01,weatherlink.com 1.10,2013-06-28 05:52:00,
2013-06-27 23:07:00,68.4,65.0,30.02,ENE,63,0.0,0.0,89,0.00,,,0.01,weatherlink.com 1.10,2013-06-28 06:07:00,
2013-06-27 23:22:00,68.0,65.0,30.01,ENE,63,0.0,0.0,90,0.00,,,0.01,weatherlink.com 1.10,2013-06-28 06:22:00,
2013-06-27 23:37:00,67.6,65.0,30.01,ENE,63,0.0,0.0,91,0.00,,,0.01,weatherlink.com 1.10,2013-06-28 06:37:00,
2013-06-27 23:52:00,67.3,65.0,30.01,NE,52,0.0,0.0,91,0.00,,,0.01,weatherlink.com 1.10,2013-06-28 06:52:00,